Language: 


Des rapports , des résumés tant et plus, au choix de chacun....


Données Historiques de Météogheer
Journalier Rapport pour Janvier 10, 2018 Unitée:  Métrique    Impériale   Les deux
Suivant Jour »
Journalier Hebdomadaire Mensuel Annuel Sur mesure
  Max: Min: Moyenne:
Température: 10.3 °C 3.9 °C 7.7 °C
Point de rosée: 10.0 °C 4.0 °C 7.7 °C
Humidité: 98% 95% 98%
Vent: 13.7km/h 0.0km/h 4.8km/h
Rafales: 17.2km/h - -
Vent- - South
Pression: 1009.0 hPa 1005.0 hPa -
Pluie: 5.8 mm    
Historical Graphs
 
 
Données tabulaires pour Janvier 10, 2018
Heure Température Point de rosée Pression Vent Vent Rafales Humidité Pluie Taux (Horaire) Conditions
00:54 7.5 °C 8.0 °C 1006.0 hPa Calm   6.4 km/h 98% 0.0 mm
01:02 7.5 °C 8.0 °C 1006.0 hPa Calm   5.5 km/h 98% 0.0 mm
01:06 7.5 °C 8.0 °C 1006.0 hPa SSE 7.9 km/h 9.3 km/h 98% 0.0 mm
01:09 7.5 °C 8.0 °C 1006.0 hPa Calm   9.3 km/h 98% 0.0 mm
01:14 7.6 °C 8.0 °C 1006.0 hPa South 5.5 km/h 14.0 km/h 98% 0.0 mm
01:17 7.6 °C 8.0 °C 1006.0 hPa South 9.0 km/h 14.0 km/h 98% 0.0 mm
01:22 7.6 °C 8.0 °C 1006.0 hPa SSE 4.3 km/h 10.5 km/h 98% 0.0 mm
01:27 7.7 °C 8.0 °C 1006.0 hPa SSW 5.5 km/h 10.5 km/h 98% 0.0 mm
01:33 7.7 °C 8.0 °C 1006.0 hPa Calm   10.5 km/h 98% 0.0 mm
01:40 7.7 °C 8.0 °C 1006.0 hPa South 6.9 km/h 11.9 km/h 98% 0.0 mm
01:44 7.7 °C 8.0 °C 1006.0 hPa Calm   10.5 km/h 98% 0.0 mm
01:52 7.7 °C 8.0 °C 1006.0 hPa South 10.8 km/h 10.8 km/h 98% 0.0 mm
02:01 7.8 °C 8.0 °C 1006.0 hPa South 8.7 km/h 10.8 km/h 98% 0.0 mm
02:06 7.8 °C 8.0 °C 1006.0 hPa SSW 5.0 km/h 10.5 km/h 98% 0.0 mm
02:10 7.8 °C 8.0 °C 1006.0 hPa SSE 8.7 km/h 10.5 km/h 98% 0.0 mm
02:17 7.9 °C 8.0 °C 1005.0 hPa South 9.7 km/h 12.6 km/h 98% 0.0 mm
02:22 7.9 °C 8.0 °C 1005.0 hPa South 6.9 km/h 12.6 km/h 98% 0.0 mm
02:34 7.9 °C 8.0 °C 1005.0 hPa SSE 9.3 km/h 9.3 km/h 98% 0.0 mm
02:43 8.0 °C 8.0 °C 1005.0 hPa Calm   10.5 km/h 98% 0.0 mm
03:06 8.0 °C 8.0 °C 1005.0 hPa Calm   7.9 km/h 98% 0.3 mm
03:08 8.0 °C 8.0 °C 1005.0 hPa South 5.0 km/h 9.3 km/h 98% 0.3 mm
03:33 8.0 °C 8.0 °C 1005.0 hPa SSE 10.8 km/h 15.4 km/h 98% 1.3 mm
03:34 8.0 °C 8.0 °C 1005.0 hPa South 8.7 km/h 15.4 km/h 98% 1.3 mm
03:43 8.0 °C 8.0 °C 1005.0 hPa SSE 9.3 km/h 12.6 km/h 98% 1.5 mm
03:48 8.0 °C 8.0 °C 1005.0 hPa SSE 8.7 km/h 13.0 km/h 98% 1.8 mm
04:09 8.0 °C 8.0 °C 1005.0 hPa South 5.8 km/h 13.7 km/h 98% 2.3 mm
04:10 8.0 °C 8.0 °C 1005.0 hPa South 12.2 km/h 13.7 km/h 98% 2.3 mm
04:15 8.0 °C 8.0 °C 1006.0 hPa SSE 4.7 km/h 16.6 km/h 98% 2.3 mm
04:26 8.0 °C 8.0 °C 1005.0 hPa South 6.1 km/h 15.8 km/h 98% 1.8 mm
04:32 8.0 °C 8.0 °C 1005.0 hPa South 5.5 km/h 15.8 km/h 98% 2.3 mm
04:45 8.0 °C 8.0 °C 1005.0 hPa SSE 10.1 km/h 15.1 km/h 98% 2.5 mm
04:56 8.0 °C 8.0 °C 1005.0 hPa South 7.9 km/h 16.6 km/h 98% 2.3 mm
05:08 8.0 °C 8.0 °C 1005.0 hPa SSE 9.7 km/h 17.2 km/h 98% 1.8 mm
05:29 8.0 °C 8.0 °C 1005.0 hPa SSW 10.1 km/h 16.3 km/h 98% 1.5 mm
05:41 8.0 °C 8.0 °C 1005.0 hPa SSW 5.5 km/h 17.2 km/h 98% 1.3 mm
05:48 8.0 °C 8.0 °C 1005.0 hPa South 11.9 km/h 14.8 km/h 98% 0.5 mm
05:55 8.0 °C 8.0 °C 1005.0 hPa SSW 10.1 km/h 13.7 km/h 98% 0.5 mm
06:04 8.0 °C 8.0 °C 1005.0 hPa South 8.7 km/h 14.0 km/h 98% 0.3 mm
06:22 8.0 °C 8.0 °C 1005.0 hPa SSW 11.9 km/h 12.2 km/h 98% 0.3 mm
06:28 8.0 °C 8.0 °C 1005.0 hPa SSE 13.7 km/h 13.7 km/h 98% 0.0 mm
06:42 8.0 °C 8.0 °C 1006.0 hPa South 8.7 km/h 14.0 km/h 98% 0.0 mm
06:52 8.0 °C 8.0 °C 1006.0 hPa South 9.7 km/h 14.0 km/h 98% 0.0 mm
07:41 8.0 °C 8.0 °C 1005.0 hPa SSW 13.7 km/h 15.4 km/h 98% 0.3 mm
07:51 8.0 °C 8.0 °C 1005.0 hPa SSW 5.5 km/h 13.7 km/h 98% 0.3 mm
08:17 8.0 °C 8.0 °C 1005.0 hPa South 9.0 km/h 14.0 km/h 98% 0.0 mm
09:17 7.2 °C 7.0 °C 1005.0 hPa SSW 9.0 km/h 13.7 km/h 98% 0.3 mm
09:48 7.3 °C 7.0 °C 1006.0 hPa Calm   13.0 km/h 98% 0.0 mm
09:54 7.3 °C 7.0 °C 1006.0 hPa South 5.8 km/h 11.9 km/h 98% 0.0 mm
10:17 7.4 °C 7.0 °C 1007.0 hPa SSW 9.3 km/h 14.8 km/h 98% 0.0 mm
10:28 7.4 °C 7.0 °C 1007.0 hPa South 8.7 km/h 12.6 km/h 98% 0.0 mm
11:16 7.7 °C 8.0 °C 1007.0 hPa SSW 5.8 km/h 10.5 km/h 98% 0.3 mm
11:55 8.0 °C 8.0 °C 1007.0 hPa SW 10.1 km/h 11.6 km/h 98% 0.0 mm
12:01 8.2 °C 8.0 °C 1007.0 hPa SW 5.8 km/h 11.6 km/h 98% 0.0 mm
12:08 8.3 °C 9.0 °C 1007.0 hPa SW 7.9 km/h 13.0 km/h 98% 0.0 mm
12:34 8.5 °C 9.0 °C 1006.0 hPa South 6.9 km/h 15.8 km/h 98% 0.0 mm
13:13 9.0 °C 9.0 °C 1006.0 hPa Calm   15.4 km/h 98% 0.0 mm
13:36 9.5 °C 10.0 °C 1006.0 hPa South 9.0 km/h 11.1 km/h 98% 0.0 mm
13:50 9.6 °C 10.0 °C 1006.0 hPa SW 8.7 km/h 9.0 km/h 98% 0.0 mm
14:06 9.7 °C 10.0 °C 1005.0 hPa SSW 8.7 km/h 11.6 km/h 98% 0.0 mm
14:16 9.7 °C 10.0 °C 1005.0 hPa SSW 11.9 km/h 16.6 km/h 98% 0.0 mm
14:21 9.7 °C 10.0 °C 1005.0 hPa SW 8.7 km/h 16.6 km/h 98% 0.0 mm
14:59 10.3 °C 10.0 °C 1006.0 hPa WSW 9.7 km/h 16.6 km/h 97% 0.0 mm
15:04 10.1 °C 10.0 °C 1006.0 hPa SSW 12.6 km/h 13.7 km/h 96% 0.0 mm
15:25 9.8 °C 9.0 °C 1005.0 hPa Calm   13.0 km/h 96% 0.0 mm
15:35 9.7 °C 9.0 °C 1005.0 hPa SSW 6.4 km/h 10.1 km/h 96% 0.0 mm
15:40 9.7 °C 9.0 °C 1005.0 hPa SW 5.0 km/h 10.1 km/h 96% 0.0 mm
15:45 9.6 °C 9.0 °C 1006.0 hPa SSW 7.6 km/h 9.7 km/h 96% 0.0 mm
15:50 9.6 °C 9.0 °C 1006.0 hPa SW 4.3 km/h 10.8 km/h 96% 0.0 mm
15:59 9.9 °C 10.0 °C 1006.0 hPa Calm   10.1 km/h 96% 0.0 mm
16:09 9.7 °C 9.0 °C 1006.0 hPa SW 6.4 km/h 8.7 km/h 96% 0.0 mm
16:15 9.5 °C 9.0 °C 1006.0 hPa Calm   8.7 km/h 95% 0.0 mm
16:33 8.9 °C 9.0 °C 1006.0 hPa SSW 4.3 km/h 9.3 km/h 96% 0.0 mm
16:41 8.8 °C 9.0 °C 1007.0 hPa Calm   9.3 km/h 96% 0.0 mm
16:50 8.5 °C 9.0 °C 1007.0 hPa SSW 1.8 km/h 6.4 km/h 96% 0.0 mm
16:59 8.5 °C 9.0 °C 1007.0 hPa South 6.4 km/h 7.9 km/h 97% 0.0 mm
17:08 8.5 °C 9.0 °C 1007.0 hPa South 6.9 km/h 9.0 km/h 97% 0.0 mm
17:19 8.5 °C 9.0 °C 1007.0 hPa South 5.5 km/h 9.3 km/h 98% 0.0 mm
17:25 8.5 °C 9.0 °C 1007.0 hPa South 6.9 km/h 9.3 km/h 98% 0.0 mm
17:40 8.2 °C 8.0 °C 1007.0 hPa Calm   10.8 km/h 98% 0.0 mm
17:45 8.2 °C 8.0 °C 1007.0 hPa SSW 6.9 km/h 10.8 km/h 98% 0.0 mm
17:51 8.1 °C 8.0 °C 1007.0 hPa Calm   8.7 km/h 98% 0.0 mm
17:56 8.1 °C 8.0 °C 1007.0 hPa Calm   9.0 km/h 98% 0.0 mm
18:04 8.0 °C 8.0 °C 1007.0 hPa SSW 8.7 km/h 9.0 km/h 98% 0.0 mm
18:11 8.1 °C 8.0 °C 1007.0 hPa SSW 3.5 km/h 11.6 km/h 98% 0.0 mm
18:16 8.1 °C 8.0 °C 1007.0 hPa SSW 1.4 km/h 11.6 km/h 98% 0.0 mm
18:21 8.2 °C 8.0 °C 1007.0 hPa SSW 5.8 km/h 10.1 km/h 98% 0.0 mm
18:30 8.2 °C 8.0 °C 1007.0 hPa Calm   9.3 km/h 98% 0.0 mm
18:35 8.2 °C 8.0 °C 1007.0 hPa SSW 6.9 km/h 7.9 km/h 98% 0.0 mm
18:40 8.2 °C 8.0 °C 1007.0 hPa South 9.7 km/h 9.7 km/h 98% 0.0 mm
18:45 8.2 °C 8.0 °C 1007.0 hPa SSW 3.2 km/h 9.7 km/h 98% 0.0 mm
18:53 8.1 °C 8.0 °C 1007.0 hPa Calm   9.3 km/h 98% 0.0 mm
18:59 8.1 °C 8.0 °C 1006.0 hPa Calm   9.3 km/h 98% 0.0 mm
19:04 8.0 °C 8.0 °C 1006.0 hPa Calm   6.9 km/h 98% 0.0 mm
19:10 8.0 °C 8.0 °C 1006.0 hPa SSW 3.2 km/h 7.9 km/h 98% 0.0 mm
19:19 8.0 °C 8.0 °C 1007.0 hPa SSW 9.7 km/h 10.5 km/h 98% 0.0 mm
19:24 8.0 °C 8.0 °C 1007.0 hPa South 10.1 km/h 10.5 km/h 98% 0.0 mm
19:31 8.0 °C 8.0 °C 1008.0 hPa Calm   10.1 km/h 98% 0.0 mm
19:40 8.0 °C 8.0 °C 1008.0 hPa Calm   11.6 km/h 98% 0.0 mm
19:52 8.0 °C 8.0 °C 1008.0 hPa SSW 4.7 km/h 10.1 km/h 98% 0.0 mm
19:58 8.0 °C 8.0 °C 1008.0 hPa Calm   8.7 km/h 98% 0.0 mm
20:07 7.9 °C 8.0 °C 1008.0 hPa Calm   5.5 km/h 98% 0.0 mm
20:15 7.7 °C 8.0 °C 1008.0 hPa Calm   5.5 km/h 98% 0.0 mm
20:25 7.3 °C 7.0 °C 1008.0 hPa Calm     98% 0.0 mm
20:36 7.0 °C 7.0 °C 1007.0 hPa South 4.7 km/h 6.9 km/h 98% 0.0 mm
20:55 6.6 °C 7.0 °C 1007.0 hPa Calm   3.5 km/h 98% 0.0 mm
21:00 6.5 °C 7.0 °C 1007.0 hPa Calm   1.4 km/h 98% 0.0 mm
21:14 6.3 °C 6.0 °C 1008.0 hPa Calm   4.0 km/h 98% 0.0 mm
21:29 6.0 °C 6.0 °C 1008.0 hPa Calm   1.8 km/h 98% 0.0 mm
21:48 5.5 °C 6.0 °C 1008.0 hPa Calm     98% 0.0 mm
21:55 5.4 °C 6.0 °C 1008.0 hPa Calm     98% 0.0 mm
22:04 5.2 °C 5.0 °C 1009.0 hPa Calm     98% 0.0 mm
22:12 5.1 °C 5.0 °C 1009.0 hPa Calm     98% 0.0 mm
22:20 5.0 °C 5.0 °C 1009.0 hPa Calm     98% 0.0 mm
22:25 5.0 °C 5.0 °C 1009.0 hPa Calm     98% 0.0 mm
22:30 4.9 °C 5.0 °C 1009.0 hPa Calm   1.4 km/h 98% 0.0 mm
22:34 4.9 °C 5.0 °C 1009.0 hPa Calm   1.4 km/h 98% 0.0 mm
22:46 4.8 °C 5.0 °C 1009.0 hPa Calm     98% 0.0 mm
22:57 4.7 °C 5.0 °C 1009.0 hPa Calm   4.0 km/h 98% 0.0 mm
23:04 4.7 °C 5.0 °C 1009.0 hPa Calm     98% 0.0 mm
23:11 4.6 °C 5.0 °C 1009.0 hPa Calm     98% 0.0 mm
23:19 4.6 °C 5.0 °C 1009.0 hPa Calm     98% 0.0 mm
23:25 4.6 °C 5.0 °C 1009.0 hPa Calm     98% 0.0 mm
23:33 4.2 °C 4.0 °C 1009.0 hPa Calm     98% 0.0 mm
23:40 4.1 °C 4.0 °C 1009.0 hPa Calm     98% 0.0 mm
23:48 3.9 °C 4.0 °C 1009.0 hPa Calm     98% 0.0 mm
Données Historique de Météo Turbie

Mise a jour : 24/05/2018 10:22:14
Généré par Cumulus 1.9.4 (1099)